Skip Page Navigation
NASA JPL Caltech
NASA Logo - Jet Propulsion Laboratory + View the NASA Portal
+ Center for Near-Earth Object Studies
JPL Home Earth Solar System Stars & Galaxies Technology
JPL Solar System Dynamics
BODIES ORBITS EPHEMERIDES TOOLS PHYSICAL DATA DISCOVERY FAQ SITE MAP
JPL Small-Body Database Browser
Search: [ help ]  
88470 Joaquinescrig (2001 QB111)
Classification: Main-belt Asteroid          SPK-ID: 2088470
Ephemeris | Orbit Diagram | Orbital Elements | Mission Design | Physical Parameters | Discovery Circumstances | Close-Approach Data ]

[ hide orbit diagram ]

For accurate long-term ephemerides, please instead use our Horizons system.This orbit viewer was implemented using two-body methods, and hence should not be used for determining accurate long-term trajectories (over several years or decades) or planetary encounter circumstances.


[ revert to old Java-based viewer ]

Orbital Elements at Epoch 2459000.5 (2020-May-31.0) TDB
Reference: JPL 17 (heliocentric ecliptic J2000)
 Element Value Uncertainty (1-sigma)   Units 
e .1533793620380343 3.9039e-08  
a 2.618319526409131 1.3607e-08 au
q 2.21672334783677 1.0227e-07 au
i 3.923246593710295 4.0708e-06 deg
node 267.7788263028944 7.7182e-05 deg
peri 27.18348484449119 7.8901e-05 deg
M 184.9006890260198 1.7442e-05 deg
tp 2459753.186852380425
(2022-Jun-22.68685238)
7.6286e-05 TDB
period 1547.506185773734
4.24
1.2063e-05
3.303e-08
d
yr
n .2326323495889643 1.8135e-09 deg/d
Q 3.019915704981491 1.5694e-08 au
  Orbit Determination Parameters
   # obs. used (total)      616  
   data-arc span      9601 days (26.29 yr)  
   first obs. used      1993-10-11  
   last obs. used      2020-01-24  
   planetary ephem.      DE431  
   SB-pert. ephem.      SB431-N16  
   condition code      0  
   norm. resid. RMS      .52804  
   source      ORB  
   producer      Otto Matic  
   solution date      2020-Feb-23 21:31:29  

Additional Information
 Earth MOID = 1.20155 au 
 Jupiter MOID = 2.16694 au 
 T_jup = 3.386 
[ show covariance matrix ]

Ephemeris | Orbit Diagram | Orbital Elements | Mission Design | Physical Parameters | Discovery Circumstances | Close-Approach Data ]

Physical Parameter Table
Parameter Symbol Value Units Sigma Reference Notes
absolute magnitude H 15.6   n/a MPO453319  

88470 Joaquinescrig           Discovered 2001 Aug. 26 by R. Ferrando at Pla D´Arguines.
Joaquín Escrig Ferrando (1945-1999) was a first cousin and friend of the discoverer and an inspiration to him in his desire for living and strength in overcoming adversity.
NOTE: some special characters may not display properly (any characters within {} are an attempt to place the proper accent above a character)
Reference: 20041126/MPCPages.arcLast Updated: 2004-12-06

[ show close-approach data ]
Alternate Designations
 2001 QB111 = 1993 TB9 
Ephemeris | Orbit Diagram | Orbital Elements | Mission Design | Physical Parameters | Discovery Circumstances | Close-Approach Data ]
ABOUT SSD CREDITS/AWARDS PRIVACY/COPYRIGHT GLOSSARY LINKS
FirstGov 2020-Aug-03 16:06 UT
(server date/time)  
NASA Home Page
Site Manager:   Ryan S. Park
Webmaster  Alan B. Chamberlin